Location: Winthrop
(48.4780°N, 120.1850°W)
Time: 02:45:49
(UTC-07:00)

Transit 2A - Pass Details

Date: 16 June 2024
Orbit: 591 x 960 km, 66.7° (Epoch: 23 July)

Event Time Altitude Azimuth Distance (km) Brightness Sun altitude
Rises 03:46:11 0° 314° (NW) 3,540 9.5 -9.3°
Reaches altitude 10° 03:49:20 10° 298° (WNW) 2,638 8.7 -9.0°
Maximum altitude 03:53:37 20° 254° (WSW) 2,050 7.7 -8.5°
Drops below altitude 10° 03:57:59 10° 210° (SSW) 2,686 8.2 -8.0°
Enters shadow 03:58:22 - 208° (SSW) 2,788 8.3 -8.0°
